Home   Weather   Dindigul   Past weeks

Flag for India Past Weather in Dindigul, Tamil Nadu, India — Yesterday and Last 2 Weeks

Now
90 °F

Haze.


Feels Like: 96 °F
Forecast: 69 / 89 °F
Wind: 5 mph from Northwest

Location: Tiruchchirapalli

Current Time: Dec 9, 2016 at 3:30:41 pm

Latest Report: Dec 9, 2016 at 3:00 pm


Visibility: 2 mi

Pressure: 29.74 "Hg

Humidity: 55%

Dew Point: 72 °F

Location of DindigulLocation

Past Weather in Dindigul — Graph

°F

Dindigul Temperature Yesterday

Maximum temperature yesterday: 90 °F (at 2:30 pm)
Minimum temperature yesterday: 73 °F (at 3:30 am)
Average temperature yesterday: 81 °F

High & Low Weather Summary for the Past Weeks

 TemperatureHumidityPressure
High95 °F (Nov 27, 3:30 pm)100% (Dec 2, 5:30 pm)30.01 "Hg (Dec 2, 5:30 pm)
Low64 °F (Dec 1, 2:30 pm)28% (Nov 27, 3:30 pm)29.74 "Hg (Dec 9, 2:00 pm)
Average78 °F73%29.87 "Hg
* Reported Nov 24 2:00 pm — Dec 9 2:00 pm, Dindigul, Weather by CustomWeather, © 2016

Note: Actual official high and low records may vary slightly from our data, if they occured in-between our weather recording intervals... More about our weather records

Advertising

Dindigul Weather History for the Previous 24 Hours

Scroll right to see more
 ConditionsComfort  
Time TempWeatherWind HumidityBarometerVisibility
2:00 pm
Fri, Dec 9
88 °FScattered clouds.5 mph59%29.74 "Hg2 mi
1:30 pm88 °FScattered clouds.6 mph59%29.77 "Hg2 mi
1:00 pm88 °FScattered clouds.6 mph59%29.80 "Hg2 mi
12:30 pm88 °FScattered clouds.6 mph59%29.80 "Hg2 mi
12:00 pm86 °FScattered clouds.5 mph62%29.83 "Hg2 mi
11:30 am86 °FHaze.6 mph62%29.86 "Hg2 mi
11:00 am86 °FHaze.5 mph62%29.86 "Hg2 mi
10:00 am84 °FHaze.5 mph66%29.89 "Hg2 mi
9:30 am82 °FHaze.6 mph70%29.92 "Hg2 mi
9:00 am81 °FFog.5 mph74%29.92 "Hg1 mi
8:30 am79 °FFog.7 mph79%29.89 "Hg1 mi
8:00 am77 °FFog.No wind83%29.89 "Hg1 mi
7:30 am75 °FFog.No wind89%29.89 "Hg1 mi
7:00 am75 °FFog.No wind83%29.89 "Hg1 mi
6:00 am73 °FFog.No wind94%29.86 "Hg1 mi
5:30 am73 °FFog.No wind94%29.86 "Hg2 mi
5:00 am73 °FFog.No wind94%29.83 "Hg2 mi
4:30 am75 °FFog.No wind89%29.83 "Hg2 mi
4:00 am75 °FFog.No wind89%29.83 "Hg2 mi
3:30 am75 °FFog.No wind89%29.83 "Hg2 mi
3:00 am75 °FFog.No wind89%29.83 "Hg2 mi
2:30 am75 °FFog.No wind89%29.83 "Hg2 mi
2:00 am75 °FFog.No wind89%29.83 "Hg2 mi
1:30 am77 °FFog.No wind83%29.86 "Hg2 mi
1:00 am77 °FFog.No wind83%29.86 "Hg2 mi
12:30 am77 °FFog.No wind83%29.86 "Hg2 mi
11:30 pm
Thu, Dec 8
77 °FFog.No wind83%29.89 "Hg2 mi
11:00 pm77 °FFog.No wind79%29.89 "Hg2 mi
10:30 pm77 °FFog.No wind79%29.89 "Hg3 mi
10:00 pm79 °FHaze.2 mph74%29.89 "Hg3 mi
9:30 pm79 °FHaze.6 mph74%29.92 "Hg3 mi
9:00 pm79 °FHaze.7 mph74%29.89 "Hg3 mi
8:30 pm81 °FHaze.8 mph70%29.89 "Hg3 mi
8:00 pm81 °FHaze.10 mph70%29.86 "Hg3 mi
7:30 pm81 °FHaze.10 mph70%29.86 "Hg3 mi
7:00 pm82 °FHaze.10 mph66%29.86 "Hg3 mi
6:30 pm82 °FHaze.12 mph70%29.83 "Hg3 mi
6:00 pm84 °FHaze.12 mph66%29.83 "Hg3 mi
5:30 pm86 °FHaze.13 mph62%29.83 "Hg3 mi
5:00 pm86 °FHaze.12 mph55%29.80 "Hg3 mi
4:30 pm88 °FPassing clouds.12 mph52%29.80 "Hg4 mi
4:00 pm90 °FPassing clouds.10 mph49%29.80 "Hg4 mi
3:30 pm90 °FPassing clouds.12 mph49%29.80 "Hg4 mi
3:00 pm90 °FPassing clouds.9 mph49%29.80 "Hg4 mi
Weather by CustomWeather, © 2016

See weather overviewHow to use our weather pages